LNI973 WARR-WIDD

Flight info

Callsign LNI973
Flight time 1h 56m
Altitude 38000
Route RAMPY M635 SURGA T23 UGEBO
Aircraft B738/M-SDE2E3FGHIRWXY/LB1

Departure

Time 2026-04-27 09:09
Airport Juanda International Airport (WARR)

Arrival

Time 2026-04-27 11:05
Airport Hang Nadim International Airport (WIDD)
Time Latitude Longitude Altitude Speed Heading
2026-04-27 08:50 -7.37542 112.79186 8 ft 0 kts
2026-04-27 08:59 -7.37549 112.79185 8 ft 2 kts
2026-04-27 09:00 -7.37563 112.79182 8 ft 2 kts
2026-04-27 09:00 -7.37578 112.79180 8 ft 2 kts
2026-04-27 09:00 -7.37589 112.79179 8 ft 0 kts
2026-04-27 09:00 -7.37603 112.79177 8 ft 2 kts 351°
2026-04-27 09:01 -7.37617 112.79182 8 ft 2 kts 332°
2026-04-27 09:01 -7.37629 112.79191 8 ft 2 kts 312°
2026-04-27 09:01 -7.37638 112.79203 8 ft 2 kts 292°
2026-04-27 09:01 -7.37640 112.79212 8 ft 1 kts 280°
2026-04-27 09:02 -7.37641 112.79218 8 ft 0 kts 278°
2026-04-27 09:03 -7.37641 112.79214 8 ft 1 kts 278°
2026-04-27 09:04 -7.37636 112.79186 8 ft 6 kts 279°
2026-04-27 09:04 -7.37631 112.79128 8 ft 10 kts 266°
2026-04-27 09:04 -7.37664 112.79099 8 ft 7 kts 187°
2026-04-27 09:04 -7.37730 112.79089 8 ft 11 kts 191°
2026-04-27 09:05 -7.37824 112.79073 8 ft 14 kts 178°
2026-04-27 09:05 -7.37885 112.79151 8 ft 17 kts 96°
2026-04-27 09:05 -7.37906 112.79282 8 ft 20 kts 100°
2026-04-27 09:05 -7.37927 112.79418 8 ft 19 kts 98°
2026-04-27 09:06 -7.37946 112.79546 8 ft 17 kts 98°
2026-04-27 09:06 -7.37966 112.79664 8 ft 16 kts 100°
2026-04-27 09:06 -7.37986 112.79771 9 ft 14 kts 100°
2026-04-27 09:06 -7.38000 112.79859 11 ft 11 kts 98°
2026-04-27 09:07 -7.38011 112.79936 11 ft 10 kts 98°
2026-04-27 09:07 -7.38027 112.80003 11 ft 9 kts 115°
2026-04-27 09:07 -7.38080 112.80037 11 ft 9 kts 179°
2026-04-27 09:07 -7.38151 112.80028 11 ft 10 kts 190°
2026-04-27 09:08 -7.38194 112.79993 11 ft 7 kts 266°
2026-04-27 09:08 -7.38187 112.79940 11 ft 9 kts 278°
2026-04-27 09:08 -7.38148 112.79694 11 ft 73 kts 279°
2026-04-27 09:08 -7.38023 112.78928 10 ft 144 kts 279°
2026-04-27 09:09 -7.37833 112.77762 178 ft 186 kts 279°
2026-04-27 09:09 -7.37637 112.76391 757 ft 207 kts 279°
2026-04-27 09:09 -7.37404 112.75009 1684 ft 207 kts 283°
2026-04-27 09:09 -7.37118 112.73543 2157 ft 221 kts 283°
2026-04-27 09:10 -7.36828 112.71988 2683 ft 233 kts 282°
2026-04-27 09:10 -7.36538 112.70326 3130 ft 251 kts 281°
2026-04-27 09:10 -7.36237 112.68558 3778 ft 261 kts 281°
2026-04-27 09:10 -7.35670 112.66814 4420 ft 270 kts 302°
2026-04-27 09:11 -7.34412 112.65406 5040 ft 278 kts 326°
2026-04-27 09:11 -7.32689 112.64519 5812 ft 281 kts 342°
2026-04-27 09:11 -7.30789 112.64062 6551 ft 284 kts 356°
2026-04-27 09:11 -7.28851 112.64224 7273 ft 284 kts 19°
2026-04-27 09:12 -7.27102 112.65166 8029 ft 284 kts 41°
2026-04-27 09:12 -7.25763 112.66599 8795 ft 284 kts 56°
2026-04-27 09:12 -7.24815 112.68339 9526 ft 284 kts 71°
2026-04-27 09:12 -7.24250 112.70221 10225 ft 287 kts 77°
2026-04-27 09:13 -7.23766 112.72208 10667 ft 301 kts 78°
2026-04-27 09:13 -7.23252 112.74312 11123 ft 314 kts 77°
2026-04-27 09:13 -7.22697 112.76457 11549 ft 326 kts 77°
2026-04-27 09:13 -7.22088 112.78730 11862 ft 343 kts 76°
2026-04-27 09:14 -7.21443 112.81083 12193 ft 357 kts 76°
2026-04-27 09:14 -7.20620 112.83473 12509 ft 372 kts 67°
2026-04-27 09:14 -7.19197 112.85720 13003 ft 383 kts 50°
2026-04-27 09:14 -7.17162 112.87452 13584 ft 390 kts 34°
2026-04-27 09:15 -7.14771 112.88784 14186 ft 395 kts 29°
2026-04-27 09:15 -7.12324 112.90027 14750 ft 398 kts 28°
2026-04-27 09:15 -7.09829 112.91270 15312 ft 402 kts 28°
2026-04-27 09:15 -7.07279 112.92540 15821 ft 406 kts 28°
2026-04-27 09:16 -7.04735 112.93816 16016 ft 410 kts 28°
2026-04-27 09:16 -7.02194 112.95098 16016 ft 407 kts 28°
2026-04-27 09:16 -6.99650 112.96388 16027 ft 406 kts 28°
2026-04-27 09:16 -6.97135 112.97669 16022 ft 407 kts 28°
2026-04-27 09:17 -6.94609 112.98956 16020 ft 406 kts 28°
2026-04-27 09:17 -6.92064 113.00255 16019 ft 406 kts 28°
2026-04-27 09:17 -6.89540 113.01543 16019 ft 406 kts 28°
2026-04-27 09:17 -6.87001 113.02837 16014 ft 405 kts 28°
2026-04-27 09:18 -6.84493 113.04116 16010 ft 405 kts 28°
2026-04-27 09:18 -6.81973 113.05402 16011 ft 405 kts 28°
2026-04-27 09:18 -6.79469 113.06679 16019 ft 407 kts 28°
2026-04-27 09:18 -6.76896 113.07996 16449 ft 412 kts 28°
2026-04-27 09:19 -6.74338 113.09309 17079 ft 412 kts 28°
2026-04-27 09:19 -6.71769 113.10628 17579 ft 415 kts 28°
2026-04-27 09:19 -6.69194 113.11951 18067 ft 418 kts 28°
2026-04-27 09:19 -6.66589 113.13288 18611 ft 419 kts 28°
2026-04-27 09:20 -6.63999 113.14617 19050 ft 422 kts 28°
2026-04-27 09:20 -6.61384 113.15958 19538 ft 424 kts 28°
2026-04-27 09:20 -6.58750 113.17307 19977 ft 427 kts 28°
2026-04-27 09:20 -6.56080 113.18675 20462 ft 428 kts 28°
2026-04-27 09:21 -6.53405 113.20045 20862 ft 432 kts 28°
2026-04-27 09:21 -6.50713 113.21423 21280 ft 434 kts 28°
2026-04-27 09:21 -6.48030 113.22797 21684 ft 437 kts 28°
2026-04-27 09:21 -6.45310 113.24191 22114 ft 438 kts 28°
2026-04-27 09:22 -6.42578 113.25589 22511 ft 441 kts 28°
2026-04-27 09:22 -6.39829 113.26977 22912 ft 443 kts 27°
2026-04-27 09:22 -6.36988 113.28226 23286 ft 447 kts 22°
2026-04-27 09:22 -6.33983 113.29086 23655 ft 451 kts 13°
2026-04-27 09:23 -6.30819 113.29452 24075 ft 455 kts
2026-04-27 09:23 -6.27635 113.29304 24429 ft 460 kts 354°
2026-04-27 09:23 -6.24512 113.28653 24766 ft 465 kts 345°
2026-04-27 09:23 -6.21462 113.27492 25123 ft 469 kts 336°
2026-04-27 09:24 -6.18609 113.25851 25485 ft 474 kts 327°
2026-04-27 09:24 -6.16025 113.23771 25838 ft 478 kts 318°
2026-04-27 09:24 -6.13737 113.21310 26189 ft 481 kts 311°
2026-04-27 09:24 -6.11700 113.18671 26506 ft 485 kts 308°
2026-04-27 09:25 -6.09753 113.15909 26866 ft 487 kts 306°
2026-04-27 09:25 -6.07809 113.13075 27159 ft 490 kts 306°
2026-04-27 09:25 -6.05885 113.10293 27460 ft 492 kts 306°
2026-04-27 09:25 -6.03895 113.07480 27940 ft 489 kts 307°
2026-04-27 09:26 -6.01903 113.04732 28418 ft 487 kts 308°
2026-04-27 09:26 -5.99878 113.01999 28906 ft 485 kts 308°
2026-04-27 09:26 -5.97844 112.99300 29349 ft 484 kts 309°
2026-04-27 09:26 -5.95827 112.96654 29782 ft 483 kts 309°
2026-04-27 09:27 -5.93778 112.93982 30195 ft 482 kts 309°
2026-04-27 09:27 -5.91726 112.91316 30662 ft 480 kts 309°
2026-04-27 09:27 -5.89699 112.88687 31109 ft 478 kts 309°
2026-04-27 09:27 -5.87639 112.86015 31535 ft 476 kts 309°
2026-04-27 09:28 -5.85638 112.83419 31962 ft 474 kts 309°
2026-04-27 09:28 -5.83609 112.80787 32356 ft 473 kts 309°
2026-04-27 09:28 -5.81603 112.78185 32758 ft 472 kts 309°
2026-04-27 09:28 -5.79607 112.75596 33194 ft 470 kts 309°
2026-04-27 09:29 -5.77623 112.73020 33625 ft 468 kts 309°
2026-04-27 09:29 -5.75631 112.70435 34036 ft 467 kts 309°
2026-04-27 09:29 -5.73642 112.67852 34362 ft 467 kts 309°
2026-04-27 09:29 -5.71661 112.65280 34690 ft 467 kts 309°
2026-04-27 09:30 -5.69683 112.62713 35034 ft 466 kts 309°
2026-04-27 09:30 -5.67694 112.60131 35397 ft 465 kts 309°
2026-04-27 09:30 -5.65701 112.57544 35727 ft 464 kts 309°
2026-04-27 09:30 -5.63736 112.54996 36009 ft 464 kts 309°
2026-04-27 09:31 -5.61766 112.52441 36260 ft 464 kts 309°
2026-04-27 09:31 -5.59785 112.49870 36515 ft 465 kts 309°
2026-04-27 09:31 -5.57801 112.47296 36753 ft 465 kts 309°
2026-04-27 09:31 -5.55831 112.44741 36943 ft 466 kts 309°
2026-04-27 09:32 -5.53842 112.42162 37142 ft 467 kts 309°
2026-04-27 09:32 -5.51850 112.39579 37400 ft 467 kts 309°
2026-04-27 09:32 -5.49859 112.36997 37616 ft 467 kts 309°
2026-04-27 09:32 -5.47869 112.34418 37810 ft 467 kts 309°
2026-04-27 09:33 -5.45863 112.31818 37958 ft 468 kts 309°
2026-04-27 09:33 -5.41865 112.26638 37991 ft 471 kts 309°
2026-04-27 09:34 -5.37855 112.21443 37990 ft 469 kts 309°
2026-04-27 09:34 -5.33866 112.16277 37991 ft 470 kts 309°
2026-04-27 09:35 -5.29843 112.11066 37990 ft 471 kts 309°
2026-04-27 09:35 -5.25846 112.05891 37990 ft 472 kts 309°
2026-04-27 09:36 -5.21811 112.00668 37989 ft 471 kts 309°
2026-04-27 09:36 -5.17797 111.95473 37990 ft 470 kts 309°
2026-04-27 09:37 -5.13790 111.90292 37982 ft 472 kts 309°
2026-04-27 09:37 -5.09778 111.85105 37976 ft 472 kts 309°
2026-04-27 09:38 -5.05747 111.79893 37974 ft 472 kts 309°
2026-04-27 09:38 -5.01749 111.74723 37972 ft 473 kts 309°
2026-04-27 09:39 -4.97705 111.69495 37970 ft 472 kts 309°
2026-04-27 09:39 -4.93711 111.64334 37972 ft 472 kts 309°
2026-04-27 09:40 -4.89695 111.59145 37977 ft 472 kts 309°
2026-04-27 09:40 -4.85663 111.53939 37981 ft 473 kts 309°
2026-04-27 09:41 -4.81623 111.48721 37986 ft 472 kts 309°
2026-04-27 09:41 -4.77617 111.43549 37987 ft 470 kts 309°
2026-04-27 09:42 -4.73616 111.38384 37989 ft 472 kts 309°
2026-04-27 09:42 -4.69564 111.33156 37988 ft 472 kts 309°
2026-04-27 09:43 -4.65555 111.27982 37990 ft 471 kts 309°
2026-04-27 09:43 -4.61529 111.22790 37987 ft 473 kts 309°
2026-04-27 09:44 -4.57479 111.17546 37989 ft 473 kts 309°
2026-04-27 09:44 -4.53478 111.12348 37989 ft 472 kts 309°
2026-04-27 09:45 -4.49484 111.07156 37992 ft 473 kts 309°
2026-04-27 09:45 -4.45459 111.01928 37986 ft 473 kts 309°
2026-04-27 09:46 -4.41423 110.96691 37990 ft 474 kts 309°
2026-04-27 09:46 -4.37403 110.91476 37991 ft 473 kts 309°
2026-04-27 09:47 -4.33379 110.86257 37986 ft 474 kts 309°
2026-04-27 09:47 -4.29373 110.81063 37989 ft 475 kts 309°
2026-04-27 09:48 -4.25335 110.75829 37990 ft 474 kts 309°
2026-04-27 09:48 -4.21297 110.70596 37989 ft 474 kts 309°
2026-04-27 09:49 -4.17269 110.65373 37992 ft 475 kts 309°
2026-04-27 09:49 -4.13232 110.60143 37993 ft 475 kts 309°
2026-04-27 09:50 -4.09193 110.54908 37986 ft 475 kts 309°
2026-04-27 09:50 -4.05146 110.49668 37990 ft 475 kts 309°
2026-04-27 09:51 -4.01113 110.44446 37985 ft 476 kts 309°
2026-04-27 09:51 -3.97090 110.39237 37984 ft 474 kts 309°
2026-04-27 09:52 -3.92945 110.34088 37984 ft 474 kts 312°
2026-04-27 09:52 -3.88647 110.29108 37984 ft 474 kts 313°
2026-04-27 09:53 -3.84282 110.24113 37977 ft 474 kts 313°
2026-04-27 09:53 -3.79966 110.19147 37971 ft 474 kts 312°
2026-04-27 09:54 -3.75647 110.14146 37971 ft 474 kts 312°
2026-04-27 09:54 -3.71377 110.09184 37971 ft 474 kts 312°
2026-04-27 09:55 -3.67056 110.04156 37973 ft 475 kts 312°
2026-04-27 09:55 -3.60598 109.96637 37983 ft 474 kts 312°
2026-04-27 09:56 -3.56297 109.91630 37988 ft 473 kts 312°
2026-04-27 09:56 -3.52004 109.86633 37990 ft 474 kts 312°
2026-04-27 09:57 -3.47691 109.81612 37990 ft 473 kts 312°
2026-04-27 09:57 -3.43377 109.76592 37991 ft 474 kts 312°
2026-04-27 09:58 -3.39099 109.71615 37990 ft 474 kts 312°
2026-04-27 09:58 -3.34774 109.66584 37991 ft 473 kts 312°
2026-04-27 09:59 -3.30481 109.61591 37991 ft 473 kts 312°
2026-04-27 09:59 -3.26201 109.56614 37991 ft 473 kts 312°
2026-04-27 10:00 -3.21892 109.51604 37991 ft 472 kts 312°
2026-04-27 10:00 -3.17604 109.46619 37991 ft 473 kts 312°
2026-04-27 10:01 -3.13305 109.41621 37991 ft 473 kts 312°
2026-04-27 10:01 -3.09006 109.36624 37991 ft 472 kts 312°
2026-04-27 10:02 -3.04719 109.31642 37991 ft 473 kts 313°
2026-04-27 10:02 -3.00434 109.26663 37990 ft 473 kts 313°
2026-04-27 10:03 -2.96137 109.21671 37990 ft 473 kts 313°
2026-04-27 10:03 -2.91834 109.16672 37992 ft 471 kts 313°
2026-04-27 10:04 -2.87559 109.11709 37993 ft 471 kts 313°
2026-04-27 10:04 -2.83270 109.06744 37991 ft 471 kts 313°
2026-04-27 10:05 -2.78987 109.01796 37990 ft 472 kts 313°
2026-04-27 10:05 -2.74668 108.96804 37991 ft 472 kts 313°
2026-04-27 10:06 -2.70375 108.91842 37992 ft 472 kts 313°
2026-04-27 10:06 -2.66078 108.86874 37992 ft 471 kts 313°
2026-04-27 10:07 -2.61795 108.81922 37994 ft 471 kts 313°
2026-04-27 10:07 -2.57522 108.76982 37994 ft 471 kts 313°
2026-04-27 10:08 -2.53213 108.72002 37994 ft 471 kts 313°
2026-04-27 10:08 -2.48932 108.67053 37994 ft 472 kts 313°
2026-04-27 10:09 -2.44635 108.62078 37990 ft 471 kts 313°
2026-04-27 10:09 -2.40361 108.57120 37990 ft 471 kts 313°
2026-04-27 10:10 -2.36077 108.52147 37990 ft 471 kts 313°
2026-04-27 10:10 -2.31789 108.47173 37989 ft 471 kts 313°
2026-04-27 10:11 -2.27515 108.42217 37992 ft 471 kts 313°
2026-04-27 10:11 -2.23238 108.37258 37989 ft 472 kts 313°
2026-04-27 10:12 -2.19194 108.32571 37989 ft 472 kts 313°
2026-04-27 10:12 -2.14892 108.27584 37991 ft 472 kts 312°
2026-04-27 10:13 -2.10586 108.22594 37990 ft 471 kts 312°
2026-04-27 10:13 -2.06314 108.17641 37992 ft 471 kts 313°
2026-04-27 10:14 -2.02032 108.12678 37991 ft 471 kts 313°
2026-04-27 10:14 -1.97731 108.07690 37990 ft 471 kts 312°
2026-04-27 10:15 -1.93459 108.02737 37991 ft 473 kts 312°
2026-04-27 10:15 -1.89136 107.97725 37990 ft 472 kts 312°
2026-04-27 10:16 -1.84878 107.92785 37994 ft 471 kts 312°
2026-04-27 10:16 -1.80578 107.87801 37993 ft 471 kts 312°
2026-04-27 10:17 -1.76314 107.82858 37994 ft 472 kts 312°
2026-04-27 10:17 -1.71993 107.77850 37995 ft 472 kts 313°
2026-04-27 10:18 -1.67701 107.72875 37989 ft 472 kts 313°
2026-04-27 10:18 -1.63401 107.67890 37995 ft 472 kts 313°
2026-04-27 10:19 -1.59112 107.62920 38005 ft 472 kts 313°
2026-04-27 10:19 -1.54806 107.57929 38010 ft 473 kts 313°
2026-04-27 10:20 -1.50517 107.52959 38012 ft 473 kts 313°
2026-04-27 10:20 -1.46215 107.47974 38013 ft 473 kts 313°
2026-04-27 10:21 -1.41893 107.42967 38013 ft 473 kts 313°
2026-04-27 10:21 -1.37595 107.37988 38013 ft 472 kts 312°
2026-04-27 10:22 -1.33246 107.33000 38013 ft 474 kts 313°
2026-04-27 10:22 -1.28865 107.28064 38003 ft 474 kts 313°
2026-04-27 10:23 -1.24507 107.23173 37999 ft 475 kts 313°
2026-04-27 10:23 -1.20105 107.18225 37997 ft 474 kts 313°
2026-04-27 10:24 -1.15726 107.13295 37990 ft 475 kts 313°
2026-04-27 10:24 -1.11331 107.08342 37991 ft 475 kts 313°
2026-04-27 10:25 -1.06936 107.03389 37992 ft 476 kts 313°
2026-04-27 10:25 -1.02544 106.98435 37991 ft 476 kts 313°
2026-04-27 10:26 -0.98154 106.93484 37991 ft 475 kts 313°
2026-04-27 10:26 -0.93773 106.88543 37992 ft 474 kts 313°
2026-04-27 10:27 -0.89372 106.83583 37990 ft 474 kts 313°
2026-04-27 10:27 -0.85024 106.78681 37991 ft 473 kts 313°
2026-04-27 10:28 -0.80649 106.73749 37992 ft 473 kts 313°
2026-04-27 10:28 -0.76282 106.68826 38000 ft 473 kts 313°
2026-04-27 10:29 -0.71933 106.63924 38010 ft 472 kts 313°
2026-04-27 10:29 -0.67549 106.58982 38012 ft 472 kts 313°
2026-04-27 10:30 -0.63223 106.54108 38012 ft 472 kts 313°
2026-04-27 10:30 -0.58647 106.49377 38013 ft 470 kts 319°
2026-04-27 10:31 -0.53764 106.45017 38011 ft 469 kts 321°
2026-04-27 10:31 -0.48840 106.40760 38011 ft 469 kts 321°
2026-04-27 10:32 -0.43891 106.36455 38013 ft 469 kts 321°
2026-04-27 10:32 -0.38987 106.32147 38011 ft 469 kts 321°
2026-04-27 10:33 -0.34083 106.27810 38011 ft 470 kts 320°
2026-04-27 10:33 -0.29181 106.23462 38012 ft 469 kts 320°
2026-04-27 10:34 -0.24305 106.19131 38011 ft 468 kts 320°
2026-04-27 10:34 -0.19444 106.14812 38013 ft 468 kts 320°
2026-04-27 10:35 -0.14549 106.10462 38013 ft 469 kts 320°
2026-04-27 10:35 -0.09658 106.06117 38013 ft 469 kts 320°
2026-04-27 10:36 -0.04763 106.01768 38012 ft 469 kts 320°
2026-04-27 10:36 0.00123 105.97427 38011 ft 469 kts 320°
2026-04-27 10:37 0.04985 105.93108 38010 ft 467 kts 320°
2026-04-27 10:37 0.09887 105.88753 38002 ft 468 kts 320°
2026-04-27 10:38 0.14771 105.84415 37993 ft 469 kts 320°
2026-04-27 10:38 0.19649 105.80080 37993 ft 469 kts 320°
2026-04-27 10:39 0.24530 105.75744 37631 ft 469 kts 320°
2026-04-27 10:39 0.26983 105.73563 37078 ft 465 kts 320°
2026-04-27 10:39 0.29368 105.71444 36469 ft 463 kts 320°
2026-04-27 10:40 0.31779 105.69301 35825 ft 462 kts 320°
2026-04-27 10:40 0.34168 105.67178 35127 ft 462 kts 320°
2026-04-27 10:40 0.36588 105.65029 34395 ft 462 kts 320°
2026-04-27 10:40 0.39006 105.62882 33638 ft 463 kts 320°
2026-04-27 10:41 0.41391 105.60763 32872 ft 464 kts 320°
2026-04-27 10:41 0.43811 105.58614 32122 ft 465 kts 320°
2026-04-27 10:41 0.46241 105.56456 31345 ft 468 kts 320°
2026-04-27 10:41 0.48662 105.54305 30526 ft 471 kts 320°
2026-04-27 10:42 0.51135 105.52109 29658 ft 475 kts 320°
2026-04-27 10:42 0.53585 105.49933 28775 ft 479 kts 320°
2026-04-27 10:42 0.56084 105.47713 27976 ft 480 kts 320°
2026-04-27 10:42 0.58558 105.45512 27337 ft 478 kts 320°
2026-04-27 10:43 0.60922 105.43129 26618 ft 479 kts 313°
2026-04-27 10:43 0.62875 105.40456 25917 ft 480 kts 303°
2026-04-27 10:43 0.64338 105.37492 25146 ft 483 kts 293°
2026-04-27 10:43 0.65429 105.34302 24403 ft 483 kts 288°
2026-04-27 10:44 0.66334 105.31098 23682 ft 483 kts 286°
2026-04-27 10:44 0.67156 105.27840 22956 ft 481 kts 285°
2026-04-27 10:44 0.67907 105.24686 22244 ft 466 kts 284°
2026-04-27 10:44 0.68629 105.21577 21566 ft 451 kts 284°
2026-04-27 10:45 0.69325 105.18584 20902 ft 438 kts 284°
2026-04-27 10:45 0.70005 105.15686 20246 ft 426 kts 284°
2026-04-27 10:45 0.70688 105.12817 19591 ft 415 kts 284°
2026-04-27 10:45 0.71348 105.10073 18959 ft 404 kts 284°
2026-04-27 10:46 0.71993 105.07413 18411 ft 393 kts 284°
2026-04-27 10:46 0.72648 105.04729 17841 ft 406 kts 284°
2026-04-27 10:46 0.73325 105.01971 17204 ft 411 kts 284°
2026-04-27 10:46 0.74003 104.99220 16554 ft 403 kts 284°
2026-04-27 10:47 0.74563 104.96528 15911 ft 392 kts 277°
2026-04-27 10:47 0.74631 104.93855 15300 ft 381 kts 261°
2026-04-27 10:47 0.73864 104.91360 15014 ft 383 kts 242°
2026-04-27 10:47 0.72362 104.89114 14986 ft 388 kts 229°
2026-04-27 10:48 0.70457 104.87183 14982 ft 392 kts 219°
2026-04-27 10:48 0.68297 104.85510 14983 ft 394 kts 214°
2026-04-27 10:48 0.66040 104.83986 14983 ft 394 kts 212°
2026-04-27 10:48 0.63719 104.82495 14983 ft 393 kts 211°
2026-04-27 10:49 0.61471 104.80939 15007 ft 394 kts 218°
2026-04-27 10:49 0.59681 104.78883 14964 ft 395 kts 240°
2026-04-27 10:49 0.58788 104.76306 14989 ft 397 kts 261°
2026-04-27 10:49 0.58533 104.73528 14984 ft 397 kts 268°
2026-04-27 10:50 0.58450 104.70802 14984 ft 398 kts 269°
2026-04-27 10:50 0.58386 104.68050 14982 ft 397 kts 269°
2026-04-27 10:50 0.58296 104.65266 14980 ft 397 kts 268°
2026-04-27 10:50 0.58173 104.62511 14979 ft 398 kts 267°
2026-04-27 10:51 0.58023 104.59769 14975 ft 397 kts 266°
2026-04-27 10:51 0.57851 104.57021 14971 ft 399 kts 266°
2026-04-27 10:51 0.57665 104.54255 14971 ft 398 kts 266°
2026-04-27 10:51 0.57472 104.51485 14971 ft 398 kts 266°
2026-04-27 10:52 0.57278 104.48742 14968 ft 397 kts 266°
2026-04-27 10:52 0.57084 104.46001 14972 ft 399 kts 266°
2026-04-27 10:52 0.56890 104.43250 14592 ft 393 kts 266°
2026-04-27 10:52 0.56700 104.40563 13904 ft 385 kts 266°
2026-04-27 10:53 0.56517 104.37952 13278 ft 375 kts 266°
2026-04-27 10:53 0.56161 104.32870 12214 ft 371 kts 266°
2026-04-27 10:53 0.55979 104.30257 11616 ft 378 kts 266°
2026-04-27 10:54 0.55798 104.27678 11025 ft 374 kts 266°
2026-04-27 10:54 0.55620 104.25124 10707 ft 354 kts 266°
2026-04-27 10:54 0.55457 104.22777 10575 ft 331 kts 267°
2026-04-27 10:54 0.55478 104.20524 10410 ft 313 kts 277°
2026-04-27 10:55 0.56068 104.18455 10294 ft 316 kts 301°
2026-04-27 10:55 0.57476 104.16816 10182 ft 307 kts 326°
2026-04-27 10:55 0.59343 104.15865 9845 ft 302 kts 346°
2026-04-27 10:55 0.61408 104.15425 9435 ft 300 kts 352°
2026-04-27 10:56 0.63475 104.15056 9056 ft 300 kts 352°
2026-04-27 10:56 0.65503 104.14682 8686 ft 299 kts 351°
2026-04-27 10:56 0.67566 104.14294 8290 ft 298 kts 351°
2026-04-27 10:56 0.69569 104.13915 7944 ft 288 kts 351°
2026-04-27 10:57 0.71515 104.13567 7591 ft 279 kts 352°
2026-04-27 10:57 0.73421 104.13239 7285 ft 273 kts 352°
2026-04-27 10:57 0.75280 104.12922 7172 ft 264 kts 352°
2026-04-27 10:57 0.77076 104.12613 7097 ft 256 kts 351°
2026-04-27 10:58 0.78778 104.12157 6950 ft 250 kts 338°
2026-04-27 10:58 0.80288 104.11300 6676 ft 248 kts 327°
2026-04-27 10:58 0.81695 104.10275 6375 ft 249 kts 325°
2026-04-27 10:58 0.83093 104.09259 6104 ft 249 kts 326°
2026-04-27 10:59 0.84501 104.08281 5832 ft 248 kts 328°
2026-04-27 10:59 0.85945 104.07307 5555 ft 247 kts 328°
2026-04-27 10:59 0.87376 104.06350 5281 ft 246 kts 328°
2026-04-27 11:00 0.90209 104.04450 4745 ft 245 kts 328°
2026-04-27 11:00 0.91631 104.03494 4477 ft 245 kts 328°
2026-04-27 11:00 0.93057 104.02535 4178 ft 243 kts 328°
2026-04-27 11:00 0.94449 104.01598 3938 ft 236 kts 328°
2026-04-27 11:01 0.95801 104.00707 3683 ft 233 kts 332°
2026-04-27 11:01 0.97270 104.00101 3533 ft 219 kts 354°
2026-04-27 11:01 0.98716 104.00279 3312 ft 208 kts 24°
2026-04-27 11:01 0.99910 104.01077 2907 ft 209 kts 45°
2026-04-27 11:02 1.00919 104.02103 2603 ft 202 kts 45°
2026-04-27 11:02 1.01908 104.02998 2336 ft 181 kts 41°
2026-04-27 11:02 1.02828 104.03774 2078 ft 164 kts 41°
2026-04-27 11:02 1.03632 104.04475 1914 ft 146 kts 43°
2026-04-27 11:03 1.04395 104.05148 1719 ft 143 kts 43°
2026-04-27 11:03 1.05144 104.05803 1541 ft 144 kts 42°
2026-04-27 11:03 1.05897 104.06462 1344 ft 143 kts 42°
2026-04-27 11:03 1.06663 104.07133 1179 ft 146 kts 43°
2026-04-27 11:04 1.07416 104.07791 961 ft 142 kts 43°
2026-04-27 11:04 1.08160 104.08443 805 ft 143 kts 42°
2026-04-27 11:04 1.08922 104.09100 576 ft 144 kts 41°
2026-04-27 11:04 1.09665 104.09739 432 ft 142 kts 42°
2026-04-27 11:05 1.10417 104.10397 254 ft 143 kts 42°
2026-04-27 11:05 1.11145 104.11052 126 ft 128 kts 43°
2026-04-27 11:05 1.11725 104.11554 126 ft 83 kts 42°
2026-04-27 11:05 1.11960 104.11721 126 ft 11 kts 341°
2026-04-27 11:06 1.12039 104.11652 126 ft 16 kts 311°
2026-04-27 11:06 1.12127 104.11591 126 ft 11 kts 26°
2026-04-27 11:06 1.12218 104.11674 126 ft 19 kts 42°
2026-04-27 11:06 1.12302 104.11741 126 ft 5 kts 31°
2026-04-27 11:07 1.12310 104.11739 126 ft 5 kts 341°
2026-04-27 11:07 1.12351 104.11703 126 ft 6 kts 311°
2026-04-27 11:07 1.12364 104.11690 126 ft 0 kts 313°